Location: Newark
(41.8083°N, 72.2500°W)
Time: 12:13:33
(UTC+00:00)

Altair - Pass Details

Date: 30 November 2021
Orbit: 1501 x 1683 km, 47.2° (Epoch: 27 January)

Event Time Altitude Azimuth Distance (km) Brightness Sun altitude
Rises 01:25:15 0° 286° (WNW) 4,675 10.8 -45.1°
Reaches altitude 10° 01:28:21 10° 290° (WNW) 3,677 10.0 -45.7°
Enters shadow 01:33:56 41° 304° (WNW) 2,068 8.3 -46.7°
